Regional Weather Roundup
Issued by NWS Goodland, KS

Home | Current Version | Previous Version | Text Only | Print | Product List | Glossary Off
Versions: 1 2 3 4 5 6 7 8 9 10 11 12 13 14 15 16 17 18 19 20 21 22 23 24 25 26 27 28 29 30 31 32 33 34 35 36 37 38 39 40 41 42 43 44 45 46 47 48 49 50

236
ASUS43 KGLD 282359
RWRGLD

GOODLAND FORECAST AREA HOURLY WEATHER ROUNDUP
NATIONAL WEATHER SERVICE GOODLAND KS
600 PM MDT THU APR 28 2016

...OFFICIAL OBSERVATIONS...

CITY           SKY/WX    TMP DP  RH WIND       PRES   REMARKS
GOODLAND KS    PTSUNNY   50  36  58 E5        30.01R
HILL CITY KS   SUNNY     57  41  55 NE14      30.00S
IMPERIAL NEB   CLOUDY    46  37  71 N5        30.04R
MCCOOK NEB     CLOUDY    49  38  65 N8        30.03R
AKRON CO       CLOUDY    39  33  79 SE5       30.03R
BURLINGTON CO  CLOUDY    48  32  53 E7        30.01R
LIMON CO       CLOUDY    38  34  85 NE14      29.99S
$$

...UNOFFICIAL OBSERVATIONS...

CITY           SKY/WX    TMP DP  RH WIND       PRES   REMARKS
COLBY KS       CLOUDY    52  43  71 NE7       30.02S
GOVE KS          N/A     55  32  41 MISG        N/A
LENORA KS        N/A     53  32  45 MISG        N/A
NORTON KS      CLOUDY    52  37  58 NE8       30.01R
SHARON SPRINGS   N/A     52  37  57 E9          N/A
TRIBUNE KS     PTSUNNY   54  36  50 NE7       30.00
KIT CARSON CO    N/A     48  33  55 MISG        N/A
YUMA CO          N/A     41  35  80 CALM        N/A
$$




USA.gov is the U.S. government's official web portal to all federal, state and local government web resources and services.